Regional Weather Roundup
Issued by NWS

Home | Current Version | Previous Version | Text Only | Print | Product List | Glossary Off
Versions: 1 2 3 4 5 6 7 8 9 10 11 12 13 14 15 16 17 18 19 20 21 22 23 24 25 26 27 28 29 30 31 32 33 34 35 36 37 38 39 40 41 42 43 44 45 46 47 48 49 50

000
ASUS45 KSLC 210110
RWRUT

UTAH REGIONAL WEATHER ROUNDUP
NATIONAL WEATHER SERVICE SALT LAKE CITY UT
700 PM MDT FRI APR 20 2018

UTZ001>011-023>025-210200-

NORTHERN UTAH

CITY           SKY/WX    TMP DP  RH WIND       PRES   REMARKS
BRIGHAM CITY   SUNNY     63  32  30 S6        30.00S
HILL AFB       SUNNY     60  33  36 SW6       30.02R
LOGAN          CLOUDY    69  33  26 N9        29.97S
OGDEN          SUNNY     61  34  36 SW7       30.00S
SALT LAKE CITY MOSUNNY   63  33  32 W7        30.01S
TOOELE VALLEY  SUNNY     61  37  41 SE6       30.04S
WENDOVER       SUNNY     68  21  16 N16       30.04R
HEBER CITY     CLOUDY    55  32  41 W13       30.01R
WEST JORDAN    SUNNY     60  34  37 NW10      30.03S

$$

UTZ011>015-024>027-210200-

CENTRAL/NORTHEAST UTAH

CITY           SKY/WX    TMP DP  RH WIND       PRES   REMARKS
PROVO AIRPORT  PTSUNNY   56  35  45 SW5       30.05R
MOAB/CANYONLAN MOSUNNY   56  28  34 NW25      29.97R
DELTA          PTSUNNY   52  41  66 S10       30.08R
PRICE          LGT RAIN  41  40  96 CALM      30.06S FOG
RICHFIELD      CLOUDY    50  30  46 NE8       30.10R
ROOSEVELT      CLOUDY    45  36  70 SW6       30.07R
VERNAL         LGT RAIN  43  39  86 W5        30.04R

$$

UTZ013>016-019>022-027-210200-

SOUTHERN UTAH

CITY           SKY/WX    TMP DP  RH WIND       PRES   REMARKS
BRYCE CANYON   CLOUDY    41  29  62 NW17      30.14R
CEDAR CITY     MOSUNNY   52  35  52 NE8       30.11R
MILFORD        MOSUNNY   54  36  50 CALM      30.08R
ST GEORGE      MOCLDY    66  34  30 SE8       30.02F
HANKSVILLE     CLOUDY    59  21  23 NW6       30.03R
KANAB          MOSUNNY   59  23  25 W13       30.11R
BLANDING         N/A     47  27  45 SW9       30.09F

$$

REGIONAL REPORTS     COLORADO/ARIZONA

CITY           SKY/WX    TMP DP  RH WIND       PRES   REMARKS
CRAIG, CO      LGT RAIN  37  34  89 SW18      29.97S WCI  27
GRAND JUNCTION LGT RAIN  46  34  62 NE9       30.02R
RIFLE, CO      LGT RAIN  37  36  96 CALM      30.04S FOG
MONTROSE, CO   CLOUDY    46  22  38 NW5       30.02R
CORTEZ, CO     PTCLDY    43  31  62 NW17      30.03R
COLORADO CITY    N/A     59  27  29 NW8       30.11S
PAGE, AZ       PTSUNNY   56  35  45 CALM      30.05R
GRAND CANYON   SUNNY     44  35  70 N9        30.13R
KINGMAN, AZ    SUNNY     71  26  18 N18       30.02S
FLAGSTAFF, AZ  MOSUNNY   42  31  64 N10       30.11R

$$

REGIONAL REPORTS    NEVADA/IDAHO/WYOMING

CITY           SKY/WX    TMP DP  RH WIND       PRES   REMARKS
LAS VEGAS, NV  SUNNY     80  27  14 E14       29.94S
ELY, NY        SUNNY     60  18  19 N20       30.12R
ELKO, NV       MOSUNNY   64  17  16 N13       30.13S
POCATELLO, ID  MOSUNNY   65  30  27 W20       30.03R
BURLEY, ID     SUNNY     61  26  26 W16G26    30.05S
FORT BRIDGER,  CLOUDY    51  34  53 N12G23    30.04R
EVANSTON, WY   CLOUDY    52  29  41 NW20G29   30.03S
ROCK SPRINGS,  CLOUDY    40  30  67 E13       30.05R WCI  32
KEMMERER, WY   CLOUDY    52  23  32 N10G31    30.01S

$$



USA.gov is the U.S. government's official web portal to all federal, state and local government web resources and services.